Location: ?????? ??????
(44.3742°N, 135.2221°E)
Time: 07:04:52
(UTC+00:00)

Cosmos 158 Rocket - Pass Details

Date: 19 May 2025
Orbit: 695 x 787 km, 74.0° (Epoch: 23 June)

Event Time Altitude Azimuth Distance (km) Brightness Sun altitude
Rises 12:11:39 0° 207° (SSW) 3,220 7.0 -15.6°
Reaches altitude 10° 12:14:01 10° 210° (SSW) 2,309 6.3 -15.9°
Maximum altitude 12:19:15 68° 293° (WNW) 844 4.4 -16.5°
Drops below altitude 10° 12:24:36 10° 16° (NNE) 2,355 7.0 -17.1°
Sets 12:27:02 0° 19° (NNE) 3,290 7.8 -17.3°
